Location: Overspoor
(51.4747°N, 5.6641°E)
Time: 22:08:21
(UTC+02:00)

YUBILEINY - Pass Details

Date: 07 July 2022
Orbit: 1478 x 1509 km, 82.5° (Epoch: 08 August)

Event Time Altitude Azimuth Distance (km) Brightness Sun altitude
Rises 02:51:32 0° 347° (NNW) 4,655 ? -14.4°
Reaches altitude 10° 02:55:31 10° 3° (N) 3,666 ? -14.2°
Maximum altitude 03:01:50 21° 50° (NE) 2,878 ? -13.9°
Drops below altitude 10° 03:08:06 10° 96° (E) 3,638 ? -13.6°
Sets 03:11:59 0° 112° (ESE) 4,609 ? -13.3°
